Change the Weather History Date:

Thursday, September 20, 2012

  Actual Average Record
Temperature  
Mean Temperature 61 °F 69 °F  
Max Temperature 72 °F 82 °F 100 °F (1939)
Min Temperature 50 °F 56 °F 40 °F (1895)
Degree Days  
Heating Degree Days 4 0  
Month to date heating degree days 15 0  
Since 1 July heating degree days 19 3  
Cooling Degree Days 0 4  
Month to date cooling degree days 30 102  
Year to date cooling degree days 426 648  
Growing Degree Days 11 (Base 50)    
Moisture  
Dew Point 50 °F    
Average Humidity 72    
Maximum Humidity 96    
Minimum Humidity 47    
Precipitation  
Precipitation 0.00 in 0.01 in 0.02 in (2005)
Month to date precipitation 0.01 0.08  
Year to date precipitation 5.55 9.97  
Since 1 July precipitation 0.01 0.08  
Sea Level Pressure  
Sea Level Pressure 30.05 in    
Wind  
Wind Speed 6 mph (NW)    
Max Wind Speed 16 mph    
Max Gust Speed 21 mph    
Visibility 10 miles    
Events      
T = Trace of Precipitation, MM = Missing Value Source: NWS Daily Summary

Daily Weather History Graph

Daily Weather History Graph

Search for Another Location

Airport or City:

Trip Planner

Search our weather history database for the weather conditions in past years. The results will help you decide how hot, cold, wet, or windy it might be!

Date:

Astronomy

Sep. 20, 2012 Rise Set
Actual Time 6:54 AM PDT 7:06 PM PDT
Civil Twilight 6:28 AM PDT 7:32 PM PDT
Nautical Twilight 5:57 AM PDT 8:03 PM PDT
Astronomical Twilight 5:26 AM PDT 8:34 PM PDT
Moon 12:10 PM PDT (9/20) 10:21 PM PDT (9/20)
Length of Visible Light 13h 04m
Length of Day
12h 12m
Waxing Crescent, 28% of the Moon is Illuminated
Sep 20
Waxing Crescent
Sep 22
First Quarter
Sep 29
Full
Oct 8
Last Quarter
Oct 15
New

Hourly Weather History & Observations

Time (PDT) Temp. Dew Point Humidity Pressure Visibility Wind Dir Wind Speed Gust Speed Precip Events Conditions
12:53 AM 55.0 °F 50.0 °F 83% 30.09 in 10.0 mi NW 4.6 mph - N/A   Clear
1:53 AM 54.0 °F 50.0 °F 86% 30.09 in 10.0 mi NW 5.8 mph - N/A   Clear
2:53 AM 54.0 °F 50.0 °F 86% 30.08 in 10.0 mi NNW 4.6 mph - N/A   Clear
3:53 AM 53.1 °F 50.0 °F 89% 30.07 in 10.0 mi NNW 3.5 mph - N/A   Clear
4:53 AM 51.1 °F 50.0 °F 96% 30.06 in 10.0 mi WNW 4.6 mph - N/A   Clear
5:53 AM 51.8 °F 50.0 °F 94% 30.06 in 9.0 mi Calm Calm - N/A   Clear
6:53 AM 51.1 °F 48.9 °F 92% 30.07 in 10.0 mi Calm Calm - N/A   Clear
7:10 AM 51.8 °F 48.2 °F 88% 30.07 in 10.0 mi Calm Calm - N/A   Mostly Cloudy
7:53 AM 53.1 °F 50.0 °F 89% 30.08 in 10.0 mi Calm Calm - N/A   Overcast
8:53 AM 55.9 °F 51.1 °F 84% 30.09 in 10.0 mi WNW 4.6 mph - N/A   Mostly Cloudy
9:12 AM 57.2 °F 51.8 °F 82% 30.09 in 10.0 mi Calm Calm - N/A   Scattered Clouds
9:53 AM 60.1 °F 51.1 °F 72% 30.09 in 10.0 mi NW 4.6 mph - N/A   Clear
10:53 AM 62.1 °F 48.9 °F 62% 30.08 in 10.0 mi WNW 5.8 mph - N/A   Clear
11:53 AM 64.9 °F 50.0 °F 58% 30.07 in 10.0 mi WNW 5.8 mph - N/A   Clear
12:53 PM 66.9 °F 51.1 °F 57% 30.06 in 10.0 mi Variable 5.8 mph - N/A   Clear
1:53 PM 70.0 °F 53.1 °F 55% 30.03 in 10.0 mi Variable 6.9 mph - N/A   Clear
2:53 PM 71.1 °F 53.1 °F 53% 30.02 in 10.0 mi WNW 12.7 mph - N/A   Clear
3:53 PM 70.0 °F 51.1 °F 51% 30.01 in 10.0 mi WNW 15.0 mph - N/A   Clear
4:53 PM 69.1 °F 48.9 °F 49% 30.00 in 10.0 mi WNW 11.5 mph - N/A   Clear
5:53 PM 66.9 °F 48.9 °F 52% 29.99 in 10.0 mi NW 11.5 mph - N/A   Clear
6:53 PM 63.0 °F 48.9 °F 60% 30.00 in 10.0 mi NW 11.5 mph - N/A   Clear
7:53 PM 61.0 °F 50.0 °F 67% 30.01 in 10.0 mi NNW 10.4 mph - N/A   Clear
8:53 PM 59.0 °F 48.9 °F 69% 30.02 in 10.0 mi NW 5.8 mph - N/A   Clear
9:53 PM 59.0 °F 50.0 °F 72% 30.02 in 10.0 mi NNW 5.8 mph - N/A   Clear
10:53 PM 57.9 °F 50.0 °F 75% 30.02 in 10.0 mi Calm Calm - N/A   Clear
11:53 PM 55.9 °F 48.9 °F 77% 30.02 in 10.0 mi WNW 3.5 mph - N/A   Clear